Hulianwang W. Digui 16-08

operational
NORAD ID: 67066 Int'l Des: 2025-295 Owner: ZXW Country: CN Constellation: xingwang
LEOCIRCULAR

关于 Hulianwang W. Digui 16-08

正在加载描述...

实时位置

正在加载3D地球...

即将过境

高度历史

Altitude vs Time

uPlot chart will show altitude changes over time

两行轨道根数

1 67066U 25295H 25346.21273250 -.00000101 00000-0 24354-4 0 9995
2 67066 50.0029 14.4606 0011491 248.6611 111.3077 14.26429655 46
Epoch: Dec 12, 2025 • Age: 54 hours

当前状态

高度 806.0 km
速度 7.45 km/s
星下点 -6.76°S, 112.92°E
发射日期 Dec 11, 2025
运行时间 3 days
类型 other

技术详情

分类 Payload
质量 800.00 kg
干质量 800.00 kg
总质量 800.00 kg
长度 3.00 m
直径 1.00 m
跨度 10.00 m
形状 Box + 2 Pan
制造商 YINNT
平台类型 Guowang Y
阶段状态 In Orbit
所有者/国家 ZXW/CN

大型星座

Loading constellations...